This demonstration page uses our WeatherBlox Daily Observations layout. Learn more.

Left ArrowRight Arrow

39.01783, -85.05884

Hourly Observations for April 17, 2018

Temp ( °F °C ) Dew Point ( °F °C ) Humidity (%) Winds ( mph kmh ) Pressure ( in mb ) Visibility ( mi km ) Precip ( " mm )
12:34 am 00:34 Cloudy with Light Snow 33 0.6 24 -4.4 70 70 W 15 24 30.00 1016 9 14 N/A
12:52 am 00:52 Cloudy with Light Snow 33 0.6 23 -5 66 66 W 17 28 29.99 1016 9 14 N/A
1:52 am 01:52 Cloudy with Light Snow 33 0.6 23 -5 66 66 W 9 15 29.97 1015 9 14 N/A
2:52 am 02:52 Cloudy 33 0.6 24 -4.4 70 70 W 7 11 29.96 1014 9 14 N/A
3:52 am 03:52 Cloudy 33 0.6 24 -4.4 70 70 WSW 9 15 29.96 1014 10 16 N/A
4:52 am 04:52 Cloudy 33 0.6 24 -4.4 70 70 SW 12 19 29.94 1014 10 16 N/A
5:52 am 05:52 Cloudy 34 1.1 25 -3.9 70 70 WSW 12 19 29.93 1013 10 16 N/A
6:52 am 06:52 Cloudy 34 1.1 25 -3.9 70 70 WSW 14 22 29.93 1014 10 16 N/A
7:52 am 07:52 Cloudy 34 1.1 25 -3.9 70 70 WSW 10 17 29.93 1014 10 16 N/A
8:42 am 08:42 Cloudy 35 1.7 25 -3.9 67 67 WSW 12 19 29.97 1015 10 16 N/A
8:52 am 08:52 Cloudy 35 1.7 25 -3.9 67 67 W 18 30 29.94 1014 10 16 N/A
9:52 am 09:52 Cloudy 35 1.7 25 -3.9 67 67 W 13 20 29.93 1014 10 16 N/A
10:52 am 10:52 Cloudy 36 2.2 26 -3.3 67 67 W 17 28 29.92 1013 10 16 N/A
11:52 am 11:52 Cloudy 38 3.3 27 -2.8 65 65 W 16 26 29.91 1013 10 16 N/A
12:47 pm 12:47 Mostly Cloudy 39 4 28 -2 65 65 W 14 22 29.94 1014 10 16 N/A
12:52 pm 12:52 Mostly Cloudy 40 4.4 28 -2.2 63 63 WNW 17 28 29.90 1013 10 16 N/A
1:52 pm 13:52 Partly Cloudy 44 6.7 30 -1.1 58 58 W 15 24 29.88 1012 10 16 N/A
2:52 pm 14:52 Mostly Cloudy 44 6.7 29 -1.7 55 55 WNW 17 28 29.88 1012 10 16 N/A
3:52 pm 15:52 Partly Cloudy 48 8.9 31 -0.6 52 52 WNW 12 19 29.87 1012 10 16 N/A
4:52 pm 16:52 Partly Cloudy 49 9.4 31 -0.6 50 50 N 8 13 29.86 1011 10 16 N/A
5:52 pm 17:52 Mostly Sunny 49 9.4 30 -1.1 48 48 NNW 8 13 29.86 1011 10 16 N/A
6:52 pm 18:52 Mostly Sunny 48 8.9 30 -1.1 50 50 N 10 17 29.87 1011 10 16 N/A
7:52 pm 19:52 Mostly Sunny 46 7.8 30 -1.1 54 54 NNW 8 13 29.87 1012 10 16 N/A
8:52 pm 20:52 Mostly Clear 42 5.6 30 -1.1 62 62 N 8 13 29.88 1012 10 16 N/A
9:52 pm 21:52 Partly Cloudy 42 5.6 28 -2.2 58 58 N 10 17 29.90 1012 10 16 N/A
10:52 pm 22:52 Mostly Clear 40 4.4 28 -2.2 63 63 NE 12 19 29.91 1013 10 16 N/A
11:52 pm 23:52 Mostly Clear 39 3.9 27 -2.8 62 62 NE 12 19 29.91 1013 10 16 N/A

Powered by AerisWeather